Weather History for Block Island, RI

Change the Weather History Date:

Monday, February 17, 2014

  Actual Average Record
Temperature  
Mean Temperature 24 °F -  
Max Temperature 30 °F 36 °F 55 °F (1976)
Min Temperature 17 °F 24 °F 2 °F (1979)
Degree Days  
Heating Degree Days 42    
Moisture  
Dew Point 3 °F    
Average Humidity 41    
Maximum Humidity 59    
Minimum Humidity 31    
Precipitation  
Precipitation 0.00 in - - ()
Sea Level Pressure  
Sea Level Pressure 30.22 in    
Wind  
Wind Speed 12 mph (NNW)    
Max Wind Speed 17 mph    
Max Gust Speed 28 mph    
Visibility 10 miles    
Events      
Averages and records for this station are not official NWS values.
T = Trace of Precipitation, MM = Missing Value Source: NWS Daily Summary

Daily Weather History Graph

Daily Weather History Graph

Search for Another Location

Airport:

Trip Planner

Search our weather history database for the weather conditions in past years. The results will help you decide how hot, cold, wet, or windy it might be!

Date:

Astronomy

Feb. 17, 2014 Rise Set
Actual Time 6:38 AM EST 5:22 PM EST
Civil Twilight 6:10 AM EST 5:51 PM EST
Nautical Twilight 5:37 AM EST 6:23 PM EST
Astronomical Twilight 5:06 AM EST 6:55 PM EST
Moon 8:16 PM EST 7:35 AM EST
Length of Visible Light 11h 40m
Length of Day
10h 44m
Waning Gibbous, 93% of the Moon is Illuminated
Feb 17
Waning Gibbous
Feb 22
Last Quarter
Mar 1
New
Mar 8
First Quarter
Mar 16
Full

Hourly Weather History & Observations

Time (EST) Temp. Windchill Dew Point Humidity Pressure Visibility Wind Dir Wind Speed Gust Speed Precip Events Conditions
12:15 AM 24.8 °F 12.9 °F 12.2 °F 59% 29.98 in 10.0 mi NNW 13.8 mph 23.0 mph N/A   Overcast
12:35 AM 23.0 °F 11.1 °F 10.4 °F 59% 29.99 in 10.0 mi NNW 12.7 mph 21.9 mph N/A   Overcast
12:55 AM 23.0 °F 10.6 °F 8.6 °F 54% 30.00 in 10.0 mi NW 13.8 mph 20.7 mph N/A   Overcast
1:15 AM 21.2 °F 9.5 °F 8.6 °F 58% 30.00 in 10.0 mi NNW 11.5 mph 23.0 mph N/A   Mostly Cloudy
1:35 AM 21.2 °F 10.1 °F 6.8 °F 54% 30.01 in 10.0 mi NW 10.4 mph 20.7 mph N/A   Mostly Cloudy
1:55 AM 21.2 °F 7.8 °F 6.8 °F 54% 30.02 in 10.0 mi NNW 15.0 mph 23.0 mph N/A   Overcast
2:15 AM 21.2 °F 8.9 °F 6.8 °F 54% 30.03 in 10.0 mi NNW 12.7 mph 23.0 mph N/A   Mostly Cloudy
2:35 AM 21.2 °F 6.8 °F 5.0 °F 50% 30.04 in 10.0 mi NNW 17.3 mph 26.5 mph N/A   Clear
2:55 AM 19.4 °F 6.0 °F 3.2 °F 49% 30.05 in 10.0 mi NNW 13.8 mph 23.0 mph N/A   Clear
3:15 AM 19.4 °F 7.2 °F 3.2 °F 49% 30.06 in 10.0 mi NNW 11.5 mph 20.7 mph N/A   Clear
3:35 AM 19.4 °F 5.0 °F 3.2 °F 49% 30.06 in 10.0 mi NW 16.1 mph 27.6 mph N/A   Clear
3:55 AM 19.4 °F 6.6 °F 3.2 °F 49% 30.07 in 10.0 mi NNW 12.7 mph 24.2 mph N/A   Clear
4:15 AM 19.4 °F 6.6 °F 1.4 °F 46% 30.08 in 10.0 mi NW 12.7 mph 23.0 mph N/A   Clear
4:35 AM 19.4 °F 6.0 °F 1.4 °F 46% 30.09 in 10.0 mi NW 13.8 mph 20.7 mph N/A   Clear
4:55 AM 19.4 °F 6.6 °F 1.4 °F 46% 30.10 in 10.0 mi NW 12.7 mph 20.7 mph N/A   Clear
5:15 AM 17.6 °F 5.7 °F 1.4 °F 49% 30.11 in 10.0 mi NW 10.4 mph 23.0 mph N/A   Clear
5:35 AM 17.6 °F 3.2 °F 1.4 °F 49% 30.13 in 10.0 mi NW 15.0 mph 23.0 mph N/A   Clear
5:55 AM 17.6 °F 6.4 °F 1.4 °F 49% 30.14 in 10.0 mi NW 9.2 mph 21.9 mph N/A   Clear
6:15 AM 17.6 °F 3.2 °F -0.4 °F 45% 30.15 in 10.0 mi NW 15.0 mph 20.7 mph N/A   Clear
6:35 AM 17.6 °F 3.7 °F -0.4 °F 45% 30.16 in 10.0 mi NW 13.8 mph 23.0 mph N/A   Clear
6:55 AM 17.6 °F 4.3 °F -0.4 °F 45% 30.16 in 10.0 mi NW 12.7 mph 19.6 mph N/A   Clear
7:15 AM 17.6 °F 3.2 °F -0.4 °F 45% 30.18 in 10.0 mi NW 15.0 mph 19.6 mph N/A   Clear
7:35 AM 17.6 °F 2.7 °F 1.4 °F 49% 30.19 in 10.0 mi NW 16.1 mph 23.0 mph N/A   Clear
7:55 AM 19.4 °F 5.5 °F 1.4 °F 46% 30.21 in 10.0 mi NW 15.0 mph 26.5 mph N/A   Clear
8:15 AM 17.6 °F 3.7 °F 1.4 °F 49% 30.20 in 10.0 mi NW 13.8 mph 23.0 mph N/A   Clear
8:35 AM 19.4 °F 6.0 °F -0.4 °F 42% 30.22 in 10.0 mi NNW 13.8 mph 21.9 mph N/A   Clear
8:55 AM 19.4 °F 6.0 °F 1.4 °F 46% 30.22 in 10.0 mi NNW 13.8 mph 20.7 mph N/A   Clear
9:15 AM 19.4 °F 5.5 °F 1.4 °F 46% 30.23 in 10.0 mi NW 15.0 mph 21.9 mph N/A   Clear
9:35 AM 21.2 °F 9.5 °F -0.4 °F 39% 30.23 in 10.0 mi NNW 11.5 mph 19.6 mph N/A   Clear
9:55 AM 21.2 °F 8.9 °F 1.4 °F 42% 30.24 in 10.0 mi NNW 12.7 mph 19.6 mph N/A   Clear
10:15 AM 21.2 °F 8.9 °F 1.4 °F 42% 30.24 in 10.0 mi NNW 12.7 mph 18.4 mph N/A   Clear
10:35 AM 23.0 °F 11.1 °F 1.4 °F 39% 30.25 in 10.0 mi NW 12.7 mph 21.9 mph N/A   Clear
10:55 AM 24.8 °F 12.9 °F 1.4 °F 36% 30.25 in 10.0 mi NW 13.8 mph 19.6 mph N/A   Clear
11:15 AM 24.8 °F 13.4 °F 1.4 °F 36% 30.25 in 10.0 mi NNW 12.7 mph 18.4 mph N/A   Clear
11:35 AM 26.6 °F 15.7 °F 1.4 °F 34% 30.25 in 10.0 mi NW 12.7 mph 19.6 mph N/A   Clear
11:55 AM 26.6 °F 16.2 °F 3.2 °F 37% 30.25 in 10.0 mi NW 11.5 mph 18.4 mph N/A   Clear
12:15 PM 26.6 °F 16.2 °F 3.2 °F 37% 30.25 in 10.0 mi NNW 11.5 mph 19.6 mph N/A   Clear
12:35 PM 26.6 °F 16.2 °F 3.2 °F 37% 30.25 in 10.0 mi NNW 11.5 mph 17.3 mph N/A   Clear
12:55 PM 28.4 °F 19.1 °F 3.2 °F 34% 30.25 in 10.0 mi NW 10.4 mph 18.4 mph N/A   Clear
1:15 PM 28.4 °F 18.5 °F 3.2 °F 34% 30.25 in 10.0 mi WNW 11.5 mph 19.6 mph N/A   Clear
1:35 PM 28.4 °F 18.0 °F 5.0 °F 37% 30.25 in 10.0 mi NNW 12.7 mph 19.6 mph N/A   Clear
1:55 PM 28.4 °F 18.5 °F 3.2 °F 34% 30.26 in 10.0 mi NW 11.5 mph 18.4 mph N/A   Clear
2:15 PM 28.4 °F 18.0 °F 3.2 °F 34% 30.26 in 10.0 mi NW 12.7 mph 21.9 mph N/A   Clear
2:35 PM 30.2 °F 21.3 °F 3.2 °F 32% 30.27 in 10.0 mi NW 10.4 mph 20.7 mph N/A   Clear
2:55 PM 30.2 °F 21.9 °F 3.2 °F 32% 30.28 in 10.0 mi WNW 9.2 mph 18.4 mph N/A   Clear
3:15 PM 30.2 °F 19.3 °F 3.2 °F 32% 30.28 in 10.0 mi NW 15.0 mph 21.9 mph N/A   Clear
3:35 PM 30.2 °F 20.2 °F 3.2 °F 32% 30.29 in 10.0 mi NW 12.7 mph 18.4 mph N/A   Clear
3:55 PM 30.2 °F 20.2 °F 3.2 °F 32% 30.30 in 10.0 mi NW 12.7 mph 18.4 mph N/A   Clear
4:15 PM 28.4 °F 19.1 °F 3.2 °F 34% 30.29 in 10.0 mi WNW 10.4 mph 19.6 mph N/A   Clear
4:35 PM 28.4 °F 19.7 °F 3.2 °F 34% 30.29 in 10.0 mi NW 9.2 mph 18.4 mph N/A   Clear
4:55 PM 28.4 °F 18.5 °F 1.4 °F 31% 30.29 in 10.0 mi NNW 11.5 mph 19.6 mph N/A   Clear
5:15 PM 28.4 °F 19.1 °F 3.2 °F 34% 30.29 in 10.0 mi NW 10.4 mph 18.4 mph N/A   Clear
5:35 PM 26.6 °F 16.2 °F 1.4 °F 34% 30.30 in 10.0 mi NW 11.5 mph 16.1 mph N/A   Clear
5:55 PM 26.6 °F 18.2 °F 1.4 °F 34% 30.31 in 10.0 mi NNW 8.1 mph 19.6 mph N/A   Clear
6:15 PM 26.6 °F 18.2 °F 3.2 °F 37% 30.32 in 10.0 mi NNW 8.1 mph - N/A   Clear
6:35 PM 26.6 °F 17.5 °F 1.4 °F 34% 30.33 in 10.0 mi NNW 9.2 mph - N/A   Clear
6:55 PM 26.6 °F 17.5 °F 1.4 °F 34% 30.34 in 10.0 mi NW 9.2 mph - N/A   Clear
7:15 PM 26.6 °F 18.2 °F 1.4 °F 34% 30.34 in 10.0 mi NW 8.1 mph - N/A   Clear
7:35 PM 26.6 °F 17.5 °F 1.4 °F 34% 30.33 in 10.0 mi NW 9.2 mph - N/A   Clear
7:55 PM 26.6 °F 18.2 °F 1.4 °F 34% 30.32 in 10.0 mi NW 8.1 mph - N/A   Clear
8:15 PM 26.6 °F 19.1 °F 1.4 °F 34% 30.32 in 10.0 mi NNW 6.9 mph - N/A   Clear
8:35 PM 26.6 °F 19.1 °F 1.4 °F 34% 30.32 in 10.0 mi NNW 6.9 mph - N/A   Clear
8:55 PM 26.6 °F 20.0 °F 1.4 °F 34% 30.33 in 10.0 mi NNW 5.8 mph - N/A   Clear
9:15 PM 26.6 °F 20.0 °F 1.4 °F 34% 30.34 in 10.0 mi NNW 5.8 mph - N/A   Clear
9:35 PM 26.6 °F 20.0 °F 1.4 °F 34% 30.34 in 10.0 mi North 5.8 mph - N/A   Clear
9:55 PM 24.8 °F 20.5 °F 3.2 °F 40% 30.34 in 10.0 mi North 3.5 mph - N/A   Clear
10:15 PM 24.8 °F 16.9 °F 3.2 °F 40% 30.33 in 10.0 mi NNE 6.9 mph - N/A   Clear
10:35 PM 24.8 °F 17.9 °F 1.4 °F 36% 30.33 in 10.0 mi NNE 5.8 mph - N/A   Clear
10:55 PM 24.8 °F 17.9 °F 1.4 °F 36% 30.33 in 10.0 mi NNE 5.8 mph - N/A   Clear
11:15 PM 23.0 °F 15.8 °F 1.4 °F 39% 30.33 in 10.0 mi NNE 5.8 mph - N/A   Clear
11:35 PM 23.0 °F 17.0 °F 1.4 °F 39% 30.32 in 10.0 mi NNE 4.6 mph - N/A   Clear
11:55 PM 23.0 °F 15.8 °F 3.2 °F 43% 30.32 in 10.0 mi NE 5.8 mph - N/A   Clear